Dewpoint
71 71 71 73 74 74 73 73 73 73 73 72 72 72 72 72 72 72 72 72 72 71 71 71 70 70 70 69 69 69 69 69 68 69 69 70 69 69 70 70 70 71 71 70 71 70 70 71 71 71 70 70 70 70 71 70 70 70 70 70 69 69 69 68 68 68 68 68 68 69 69 68 68 68 68 69 69 69 69 68 67 65 67 68 68
70 71 72 72 73 73 73 73 73 73 72 72 72 72 72 72 72 72 72 71 71 71 71 70 70 70 70 69 69 69 69 68 68 68 69 70 69 71 71 70 70 70 70 71 71 70 70 71 71 71 70 70 70 71 71 70 70 70 70 69 69 69 69 69 68 68 68 68 69 69 69 69 69 69 69 69 69 69 68 67 67 65 66 68 68
71 72 72 72 73 73 73 72 72 72 72 72 72 72 72 71 71 71 71 71 71 71 70 70 70 69 69 69 69 69 68 68 68 68 68 69 69 69 69 70 70 70 70 71 71 71 70 71 71 70 70 70 70 70 70 70 70 69 69 69 68 68 69 69 68 68 68 68 69 69 68 68 68 69 68 69 69 68 68 68 67 66 65 67 67
71 71 71 73 73 73 73 72 72 72 71 72 72 71 71 71 71 71 71 71 70 70 70 70 70 70 70 69 69 68 68 68 68 68 68 69 69 69 69 70 70 70 70 71 71 71 70 70 71 71 70 70 70 70 70 70 70 69 69 69 69 69 68 69 69 68 68 68 68 68 68 67 67 67 68 68 68 67 67 67 67 67 66 66 66
71 71 71 72 72 72 72 72 72 71 71 71 71 71 71 71 71 70 71 71 71 70 70 70 70 70 69 69 69 68 68 68 68 67 68 69 69 68 69 69 70 70 70 70 70 71 71 70 70 70 70 69 69 70 69 69 70 69 69 69 69 68 68 68 68 68 67 67 66 66 65 64 65 67 68 67 66 65 65 65 65 66 66 65 65
71 71 71 71 71 71 72 72 72 72 72 71 71 71 70 71 70 70 70 71 70 70 70 70 70 69 69 69 69 69 68 67 67 68 69 69 69 69 68 69 68 69 70 70 70 70 70 70 70 69 69 69 69 69 69 69 69 69 69 68 67 67 67 67 67 67 66 66 65 63 61 62 61 62 66 66 65 65 65 65 65 65 65 65 65
71 71 71 70 70 71 72 72 72 71 71 70 70 70 70 70 70 70 70 70 70 70 70 70 69 69 69 69 69 68 68 68 68 67 68 69 69 69 68 68 68 68 69 69 69 69 69 69 69 68 68 69 69 68 69 69 69 69 69 68 67 67 67 66 66 66 65 64 62 61 61 59 59 60 63 63 63 63 63 64 64 65 65 64 66
71 71 71 70 71 72 72 72 71 71 71 71 70 71 71 70 70 70 70 70 70 70 70 70 69 69 69 69 69 69 68 68 67 67 68 69 69 69 69 68 68 69 69 68 68 68 68 69 68 68 69 70 70 70 69 69 69 69 68 68 68 67 66 65 65 64 62 59 60 61 60 58 60 59 64 64 65 67 67 67 68 67 68 67 66
70 70 71 70 70 72 72 72 71 71 71 70 71 71 71 71 70 70 70 70 70 70 70 69 69 69 69 69 69 69 69 68 68 67 67 68 70 70 69 69 68 69 69 70 69 68 68 68 67 69 70 70 70 70 70 69 69 69 68 68 68 67 66 65 64 61 59 58 58 57 58 57 57 57 63 64 66 67 66 67 68 67 67 67 66
71 72 71 70 70 73 72 72 72 71 71 71 71 71 71 70 70 70 70 70 70 70 69 69 69 69 69 69 69 69 69 69 69 68 68 68 69 69 70 70 69 68 68 68 69 68 68 67 68 69 70 70 70 70 70 69 69 68 68 68 68 67 66 65 64 63 60 59 58 60 62 63 60 61 66 67 67 67 67 67 67 67 67 66 66
71 72 70 70 70 73 72 72 72 72 71 71 71 70 70 71 70 70 70 69 69 70 70 69 69 69 69 69 69 69 68 69 69 69 69 69 68 69 68 69 69 69 68 68 69 68 67 67 68 70 70 70 70 69 69 69 69 68 68 68 67 66 65 64 62 59 59 58 59 57 57 62 60 64 67 68 68 67 67 67 67 67 66 66 67
70 72 72 71 73 72 72 72 72 72 71 71 70 71 71 71 70 70 70 69 70 70 70 70 69 69 69 69 69 68 69 71 71 71 71 70 70 70 69 69 69 69 69 69 68 67 68 68 69 69 69 70 70 69 69 69 68 68 68 67 67 66 65 64 59 59 59 59 59 61 61 61 63 65 68 67 67 67 66 66 66 67 67 67 67
71 71 71 72 71 72 72 72 72 72 71 71 71 71 71 71 70 70 70 70 70 70 70 70 70 70 70 69 69 69 70 70 70 70 71 70 71 70 69 69 69 69 69 69 68 68 68 69 69 69 69 70 70 69 69 68 68 68 67 67 66 65 64 62 58 59 59 59 60 60 60 63 64 65 65 66 65 65 66 66 65 65 65 65 65
71 71 71 71 70 73 73 72 72 72 71 71 71 71 71 70 70 71 71 71 71 71 71 71 70 70 70 70 70 70 70 70 70 70 71 71 70 71 70 70 70 70 69 68 69 69 69 69 69 69 69 69 69 69 69 68 68 67 67 66 66 65 65 63 62 60 60 58 61 59 60 63 62 65 64 64 64 64 64 64 65 64 64 64 62
71 71 71 71 71 71 73 72 72 72 72 71 71 71 71 71 71 71 71 71 71 71 71 71 71 70 70 71 70 70 70 70 71 71 71 71 71 70 69 70 70 69 69 69 69 69 70 70 69 69 69 69 69 69 68 68 68 67 66 66 66 65 63 59 58 59 59 59 59 58 57 62 65 64 63 63 64 63 63 63 63 63 64 62 61
72 72 71 71 71 71 71 73 72 72 72 72 71 71 71 71 71 72 72 72 71 71 71 71 71 71 71 71 71 71 70 71 72 71 71 70 70 70 70 69 69 69 69 69 69 70 70 70 70 69 69 69 69 68 68 67 67 66 66 65 65 65 64 61 59 59 60 60 59 59 59 62 65 64 64 64 63 64 64 64 63 63 63 62 64
72 71 71 71 71 70 70 70 72 73 72 72 72 71 72 72 72 72 72 72 71 71 71 71 71 71 71 70 71 71 71 72 71 71 70 70 70 70 70 69 69 69 69 69 69 70 70 70 70 69 69 69 68 68 67 67 66 66 65 65 65 65 64 62 59 60 60 60 59 59 62 61 64 64 64 64 65 65 64 63 64 64 63 63 63
71 71 71 71 71 70 70 70 71 71 72 72 72 72 72 72 72 72 72 72 72 71 71 71 71 71 71 71 72 72 71 71 71 71 70 70 70 70 70 70 69 69 69 69 69 70 70 70 70 69 69 68 68 68 67 66 66 65 65 65 65 64 63 62 61 60 60 61 59 61 61 64 65 64 64 64 62 62 64 63 62 61 60 61 63
70 70 71 71 70 70 69 70 71 70 71 71 71 71 72 72 72 72 72 72 72 71 71 71 71 71 71 72 72 72 71 71 71 70 70 70 70 70 70 69 69 69 69 69 69 70 70 70 69 68 69 68 68 67 66 66 66 66 65 65 65 65 63 62 59 59 60 61 60 60 60 65 64 62 62 61 61 62 62 62 62 62 62 62 62
70 71 71 71 70 69 70 70 70 70 71 71 71 71 72 72 72 72 72 72 72 72 72 72 71 71 71 71 71 71 71 71 71 70 70 70 69 69 70 69 69 69 69 69 69 69 70 69 69 69 68 68 67 67 66 66 66 66 65 65 65 64 62 61 59 59 60 60 62 61 64 63 62 62 62 63 63 62 61 62 62 62 62 63 62
69 69 70 70 70 70 69 69 70 70 71 70 70 71 71 72 72 72 72 72 72 72 72 72 72 71 71 70 70 70 72 71 70 70 70 69 70 70 70 70 69 69 69 69 69 69 69 69 68 68 68 67 67 67 66 66 66 65 65 65 64 62 62 61 60 60 60 60 60 59 64 63 62 62 62 63 62 61 61 61 61 61 60 61 61
68 69 70 70 70 69 69 69 69 69 70 70 70 71 70 71 71 71 70 71 71 72 71 70 70 70 70 71 72 71 71 72 70 70 70 70 69 70 70 69 69 69 69 68 69 68 68 69 68 68 68 67 67 65 66 66 66 65 65 64 61 61 62 62 61 60 60 60 61 61 61 61 61 61 61 61 61 61 61 61 61 61 61 60 61
67 68 69 70 70 70 70 70 69 69 70 69 70 70 70 70 70 70 70 70 70 70 69 69 69 69 69 69 72 71 70 70 72 69 69 69 69 70 70 69 69 69 69 69 69 69 69 68 68 67 68 68 66 65 63 62 63 65 64 62 62 62 62 63 62 62 61 61 60 62 62 62 62 61 61 61 61 61 61 61 61 61 61 61 60
66 67 68 69 70 71 70 70 70 70 70 69 70 70 70 70 69 69 69 70 70 70 69 69 69 69 69 70 71 71 71 71 70 70 70 69 69 69 69 69 69 69 69 69 69 69 69 69 69 68 67 66 65 63 62 62 61 62 62 61 61 61 62 63 62 61 61 59 58 62 61 61 61 61 61 61 61 61 61 61 61 61 60 60 60
65 66 67 68 69 71 70 70 70 71 70 70 70 69 70 69 69 68 69 69 70 70 70 70 69 69 70 70 69 70 70 70 71 69 68 68 68 68 68 67 67 67 67 67 67 66 67 65 66 65 65 65 65 63 61 61 61 61 62 62 62 62 62 63 60 58 61 61 61 62 61 61 61 61 61 60 61 61 61 61 60 60 60 60 60
66 66 66 67 68 70 69 70 70 70 70 69 69 69 69 68 68 68 68 70 69 70 70 70 70 71 71 69 69 70 70 69 69 68 67 68 67 67 66 67 67 67 67 67 67 67 66 65 65 65 65 65 64 62 62 61 61 61 61 62 62 62 61 60 59 61 61 61 61 61 62 61 61 61 61 61 61 61 61 61 61 61 61 61 61
66 65 66 67 68 69 69 70 69 70 69 69 69 68 69 68 68 68 68 70 70 69 69 69 70 70 70 69 69 71 70 68 68 68 67 67 67 67 66 67 67 66 67 66 67 67 66 65 65 65 64 63 62 61 61 61 61 60 61 62 62 61 61 60 60 61 61 61 60 61 61 61 61 61 62 61 61 62 61 61 61 61 60 60 60
65 66 67 67 68 69 69 69 69 70 70 70 69 68 68 69 69 70 69 70 70 69 69 69 70 70 70 69 69 69 68 68 68 67 67 67 67 67 67 66 66 66 66 67 66 66 65 65 66 64 62 61 60 60 59 61 62 62 62 63 63 62 61 60 62 62 61 62 61 62 62 63 62 61 61 61 62 61 62 62 62 62 62 61 60
64 66 66 67 68 68 68 69 70 70 70 70 69 68 69 70 70 70 70 69 70 70 69 70 70 70 70 69 70 69 68 68 67 67 67 67 67 67 66 66 66 66 66 65 67 66 66 65 65 63 63 62 62 62 60 61 64 63 63 62 62 63 62 62 62 61 60 61 61 61 61 61 63 63 61 61 61 62 62 62 63 62 62 62 61
64 66 66 66 67 68 68 69 69 69 70 70 69 69 69 69 69 70 70 69 70 70 70 69 70 69 69 69 69 69 68 67 67 67 66 67 67 67 66 66 65 66 66 65 66 66 65 65 65 64 61 61 60 63 63 62 63 63 63 63 62 62 63 61 61 60 60 61 62 62 64 64 64 64 64 63 63 63 63 63 63 63 63 62 62
66 66 66 66 68 68 67 69 70 70 70 69 70 70 69 68 68 69 70 69 69 70 70 69 68 69 69 69 69 69 68 67 67 67 67 67 67 67 66 66 65 66 66 65 66 67 66 65 65 64 64 62 62 63 62 63 63 64 64 62 63 63 62 62 61 60 59 60 61 64 63 65 65 66 66 66 64 62 62 63 63 63 63 63 63
65 65 65 67 68 68 68 68 69 70 69 68 70 70 69 68 68 69 69 68 69 69 69 69 69 68 69 69 69 69 68 67 67 66 66 66 66 66 66 66 65 65 65 66 65 67 66 66 66 66 65 65 64 64 65 64 64 63 62 62 62 62 61 61 61 61 61 61 62 64 64 64 67 67 67 67 67 64 63 63 63 64 63 63 63
65 66 66 67 67 67 67 68 69 69 69 69 69 69 69 68 68 68 68 69 69 68 69 68 68 68 69 69 69 68 68 66 67 66 66 65 65 66 65 66 65 65 65 65 66 66 66 66 66 66 65 65 64 64 64 64 63 62 63 63 63 61 61 61 62 62 62 62 63 65 65 64 65 67 67 67 66 66 65 64 63 64 63 63 64
64 66 67 66 67 67 68 68 68 69 69 70 69 69 68 69 68 69 70 68 68 68 69 69 69 68 69 68 68 68 67 66 66 66 66 65 66 65 65 65 65 66 65 65 65 65 63 65 65 65 65 64 64 64 63 63 64 64 64 64 63 63 61 61 61 62 62 62 64 65 65 65 65 65 64 66 66 66 66 65 65 65 64 64 64
65 66 66 66 67 67 68 67 68 68 69 69 69 68 68 68 68 69 69 70 69 68 67 69 69 69 68 68 68 68 67 67 67 67 66 66 66 65 65 65 65 66 65 65 64 65 65 64 64 63 64 64 63 63 63 63 63 64 64 64 63 62 62 61 62 61 61 63 64 64 65 65 65 65 64 65 65 65 65 65 65 64 64 64 64
65 66 66 67 67 67 68 67 67 68 68 68 68 68 68 68 69 68 69 69 69 68 69 69 69 70 69 68 68 68 67 67 67 67 67 66 66 66 65 65 65 66 64 65 65 63 65 64 65 65 63 63 63 63 63 63 64 63 64 64 64 62 61 61 61 61 62 62 61 63 64 64 64 64 64 64 66 66 64 65 65 65 65 64 65
67 66 66 67 67 67 67 67 67 67 68 68 68 68 69 68 68 68 68 68 69 69 69 69 69 69 69 68 68 68 67 67 67 67 68 68 67 66 65 65 66 65 65 65 64 64 64 65 65 65 65 63 63 62 63 63 64 63 64 64 63 62 62 61 61 61 62 62 62 62 63 63 65 64 64 63 64 64 65 66 65 66 66 65 65
65 66 66 66 66 66 67 66 66 67 68 67 68 68 68 68 68 68 68 68 68 67 68 68 68 69 69 68 68 68 68 67 67 68 69 68 67 67 66 66 66 66 66 65 64 64 65 65 64 65 65 64 62 63 63 63 63 63 63 63 63 63 63 62 62 62 61 61 61 62 63 65 64 63 63 64 63 63 64 65 66 66 66 65 65
65 65 65 66 66 65 65 66 66 66 66 67 67 67 67 67 68 67 67 67 67 69 69 68 68 68 69 68 68 69 69 67 67 68 68 68 68 67 67 66 67 66 66 65 65 65 65 66 65 64 65 64 63 64 63 63 62 62 62 63 63 63 63 62 62 61 60 62 61 62 63 64 64 63 63 63 63 64 64 64 64 64 65 66 66
64 64 63 63 63 63 65 65 65 66 66 67 66 66 66 67 66 66 66 67 66 66 67 68 68 68 68 68 67 68 67 66 66 66 67 67 68 67 67 67 67 66 65 65 64 64 65 66 66 63 64 63 63 63 63 63 62 62 62 62 64 63 61 62 62 61 61 62 62 63 62 63 63 64 63 63 63 63 64 64 64 62 63 65 65
63 63 63 63 63 64 63 63 65 65 65 65 66 65 65 65 66 65 65 66 66 66 66 67 67 66 67 67 67 68 67 66 66 67 67 67 67 66 66 67 67 66 66 66 66 65 65 65 64 64 63 62 63 63 63 63 62 61 61 62 62 63 63 62 62 61 61 62 62 62 63 63 63 63 62 63 62 63 63 63 63 63 63 63 64
62 63 64 64 63 63 63 63 65 65 65 65 66 65 66 65 64 64 65 65 64 65 65 66 66 67 67 67 67 67 67 67 66 66 67 68 65 65 65 65 66 66 67 67 66 65 65 65 64 63 63 63 62 63 63 62 60 59 59 58 61 63 62 62 61 60 61 61 62 62 63 62 61 61 61 61 61 61 61 62 63 63 63 63 63
63 63 63 64 63 63 64 64 65 65 65 65 66 65 66 66 65 65 65 64 65 65 65 66 67 67 67 67 67 67 66 66 66 66 66 66 66 66 66 67 66 65 65 65 65 64 64 64 64 62 61 62 62 63 63 62 59 60 60 58 57 56 59 62 63 61 62 63 63 61 61 61 60 60 61 61 61 61 60 61 62 63 63 63 62
63 62 62 62 63 64 64 65 65 66 65 65 66 66 66 66 66 66 65 65 64 66 66 66 66 67 66 66 67 67 66 66 65 66 66 66 66 66 66 66 65 65 66 65 65 64 64 64 64 63 62 61 61 62 62 63 62 60 57 57 58 57 56 58 59 61 63 63 63 61 61 61 60 59 60 60 60 61 61 61 62 63 63 63 62
63 63 63 63 63 64 65 66 65 66 65 66 66 66 66 66 66 65 65 64 64 65 65 64 65 65 66 66 66 66 66 66 66 66 66 66 66 66 65 65 65 65 65 65 64 63 63 63 63 63 63 61 60 61 62 63 62 62 59 57 57 56 55 57 58 59 63 62 61 61 62 61 61 60 59 59 60 61 60 60 62 63 64 63 63
63 63 64 64 64 64 65 65 66 65 65 66 66 66 65 65 65 64 62 61 62 63 62 63 64 64 65 66 66 65 65 65 66 65 64 65 65 65 65 65 66 65 64 64 64 64 62 62 63 63 63 64 62 60 61 63 62 63 63 64 61 55 55 56 58 57 62 62 61 60 61 61 62 62 60 59 59 59 60 60 63 63 63 62 62
61 62 63 64 64 64 64 64 65 65 65 66 66 66 66 65 64 64 64 63 62 62 65 65 65 65 65 66 65 66 65 65 65 64 63 64 65 65 65 66 65 65 65 65 65 62 62 61 62 63 63 62 62 60 60 60 62 62 62 63 62 61 58 57 55 56 55 58 60 60 60 60 61 61 60 60 59 60 61 60 61 60 61 62 61
60 60 61 62 62 62 63 64 63 63 65 65 66 65 65 65 64 64 63 63 63 63 63 63 64 65 66 65 66 65 65 65 65 64 64 64 65 65 65 65 65 63 65 64 64 65 64 63 63 63 63 62 63 61 61 60 59 60 61 61 62 62 61 60 58 56 54 53 56 58 59 62 63 62 61 61 60 60 62 61 59 59 60 59 60
57 58 59 61 62 62 62 62 63 63 65 65 66 66 65 65 65 63 63 64 65 63 63 63 64 65 65 66 65 65 65 66 65 64 64 64 65 64 65 65 65 65 64 65 64 64 64 64 63 63 63 63 63 63 62 60 61 60 60 60 60 59 60 60 60 58 55 53 54 56 57 60 61 62 63 63 62 61 61 61 59 58 61 61 60
56 56 57 58 59 60 61 61 61 62 63 63 65 65 65 65 65 64 64 64 63 63 63 63 63 65 64 64 65 65 64 65 65 64 64 64 64 64 64 64 64 65 65 64 64 64 64 64 63 63 63 63 64 64 63 61 61 61 60 60 59 60 59 58 58 58 57 56 54 53 56 57 57 59 61 61 61 61 60 61 61 58 59 60 59
54 54 56 56 57 58 58 59 61 61 62 61 62 63 65 65 65 65 64 64 64 63 63 63 63 64 63 64 64 63 64 64 65 64 65 64 64 64 64 64 65 65 64 64 64 64 65 65 64 64 63 63 63 63 63 63 62 62 62 61 60 59 57 57 57 56 57 57 56 55 55 55 56 57 60 60 60 60 59 60 60 59 60 60 58